Location: Harbor Island
(32.3990°N, 80.4435°W)
Time: 02:10:01
(UTC-04:00)

Daily predictions for brighter satellites

Satellite Brightness Start Highest point End
(mag) Time Altitude Azimuth Time Altitude Azimuth Time Altitude Azimuth
ATLAS 5 CENTAUR R/B 4.2 00:10:13 13° NE 00:10:13 13° NE 00:10:50 10° NE
Lacrosse 5 4.4 00:03:49 10° W 00:07:19 18° NW 00:10:48 10° N
CZ-2C R/B 3.9 00:09:09 49° W 00:09:09 49° W 00:14:21 10° NNW
Cosmos 1833 Rocket 4.4 00:08:20 10° N 00:12:21 21° ENE 00:12:21 21° ENE
USA 234 3.4 00:23:28 10° NE 00:28:51 62° ENE 00:28:51 62° ENE
CZ-2C R/B 4.0 00:27:14 10° N 00:31:59 31° WNW 00:32:04 31° WNW
ADEOS Rocket 3.5 00:30:48 10° NNE 00:35:20 52° NE 00:35:20 52° NE
Cosmos 2278 Rocket 3.5 00:50:17 33° WNW 00:50:17 33° WNW 00:55:19 10° N
USA 238 DEB 4.2 00:44:26 10° NW 00:50:25 53° W 00:50:25 53° W
USA 238 4.2 00:44:32 10° NW 00:50:32 53° W 00:50:32 53° W
Mayak 1.1 00:47:38 10° N 00:49:06 21° N 00:49:06 21° N
ATLAS 3B R/B 3.2 00:55:55 10° NW 01:00:49 48° WNW 01:00:49 48° WNW
NOSS 3-2 (A) 4.1 00:59:29 10° NW 01:06:52 73° W 01:06:52 73° W
Cosmos 2369 Rocket 4.0 01:26:05 22° ENE 01:26:05 22° ENE 01:28:35 10° NE
NOSS 3-2 (C) 4.1 01:21:19 10° NW 01:28:32 71° W 01:28:32 71° W
Cosmos 2082 Rocket 3.4 01:37:22 10° NNW 01:40:49 38° NW 01:40:49 38° NW
ATLAS 5 CENTAUR R/B 4.1 01:51:43 16° NW 01:51:43 16° NW 01:54:23 10° N
Cosmos 1833 Rocket 4.3 01:51:21 10° NW 01:54:01 26° NW 01:54:01 26° NW
Cosmos 2181 Rocket 4.3 02:02:48 66° NNE 02:02:48 66° NNE 02:08:08 10° N
Cosmos 2341 Rocket 4.3 02:06:16 10° N 02:11:37 64° NNW 02:11:37 64° NNW
CENTAUR R/B 3.0 02:07:52 10° NNW 02:16:04 75° WSW 02:16:04 75° WSW
Cosmos 2098 Rocket 4.2 02:11:37 10° N 02:19:03 76° ENE 02:19:03 76° ENE
Cosmos 1943 Rocket 2.8 02:23:39 50° NE 02:23:39 50° NE 02:27:46 10° NNE
Cosmos 2218 Rocket 4.1 02:24:10 10° N 02:29:50 70° NE 02:29:50 70° NE
BREEZE-M DEB (TANK) 4.3 02:34:08 66° W 02:34:53 72° NW 02:38:41 10° NE
SL-8 Rocket 4.1 02:33:24 10° N 02:38:56 67° NW 02:38:56 67° NW
Meteor 2-3 Rocket 4.0 02:41:43 66° NE 02:41:43 66° NE 02:46:43 10° N
Lacrosse 4 Rocket 3.9 02:43:02 17° ENE 02:43:02 17° ENE 02:44:44 10° ENE
Cosmos 864 Rocket 4.5 02:36:53 10° N 02:42:54 79° NE 02:42:54 79° NE
CZ-2D R/B 3.3 02:39:13 10° NNE 02:43:41 34° E 02:43:41 34° E
SL-16 R/B 3.7 02:43:58 27° ESE 02:46:23 36° ENE 02:51:55 10° N
Timation 2 Rocket 4.1 02:40:23 10° NNW 02:47:09 81° ENE 02:47:40 75° ESE
IRS-P3 4.5 02:51:44 10° NNE 02:56:33 58° ENE 02:56:33 58° ENE
Cosmos 2366 rocket 4.1 02:58:42 10° NNW 03:04:12 59° WNW 03:04:12 59° WNW
Cosmos 2369 Rocket 3.3 03:07:52 31° WNW 03:07:52 31° WNW 03:12:40 10° N
Nadezhda 3 Rocket 3.9 03:08:04 75° SSE 03:08:37 82° E 03:14:59 10° N
SL-08 R/B 4.1 03:10:20 46° E 03:10:37 47° ENE 03:15:09 10° N
IRS-1D 3.8 03:11:10 10° NNE 03:16:12 56° E 03:16:12 56° E
Meteor 2-15 Rocket 4.3 03:16:09 69° W 03:16:14 69° W 03:22:18 10° N
Cosmos 468 Rocket 4.3 03:16:37 10° N 03:21:42 62° ENE 03:22:21 56° ESE
Resurs 1-4 Rocket 2.0 03:17:52 10° NNE 03:23:13 88° ESE 03:23:17 87° SE
MOZ.5/SAFIR/RUBIN 5/SL-8 4.4 03:31:57 45° ESE 03:32:54 53° ENE 03:37:27 10° N
Cosmos 1486 Rocket 4.3 03:33:23 54° SE 03:34:01 58° ESE 03:39:13 10° NNE
Cosmos 1606 4.2 03:32:38 10° NNW 03:34:41 30° NNW 03:34:41 30° NNW
ERS-1 4.5 03:31:32 10° NNE 03:36:46 77° ESE 03:37:20 68° SSE
H-2A R/B 3.2 03:34:58 10° N 03:37:55 44° NNW 03:37:55 44° NNW
Cosmos 1825 4.3 03:42:06 18° NW 03:42:06 18° NW 03:43:33 10° NNW
Cosmos 1570 Rocket 4.2 03:35:48 10° NNW 03:40:22 54° WNW 03:40:22 54° WNW
PSLV R/B 4.4 03:45:35 52° ESE 03:46:13 58° ENE 03:50:22 10° N
Cosmos 1437 Rocket 3.3 03:46:50 55° E 03:46:55 55° E 03:50:56 10° NNE
H-II Stage 2 3.9 03:46:47 43° SSW 03:47:49 45° S 04:14:32 10° ESE
GP-B 4.3 03:44:26 10° NNW 03:47:26 30° NW 03:47:26 30° NW
Meteor 2-6 Rocket 4.0 03:44:20 10° N 03:49:44 87° E 03:51:13 50° S
CZ-3A R/B 4.4 03:26:54 10° NW 03:51:56 82° SW 03:58:50 10° SSE
Cosmos 1833 4.0 03:47:35 10° NNW 03:53:10 79° WSW 03:54:53 46° S
Cosmos 1782 3.8 03:50:18 10° NNW 03:52:57 36° NW 03:52:57 36° NW
CZ-3C R/B 3.9 03:55:32 17° SSE 03:55:32 17° SSE 04:02:32 10° SE
Cosmos 1656 Rocket 4.3 03:56:02 38° W 03:56:56 40° WNW 04:02:15 10° N
Meteor 1-10 Rocket 4.1 03:54:11 10° NNW 03:59:45 75° W 04:01:26 46° S
Milstar 3 Cent rocket 4.0 03:53:11 26° WSW 04:03:36 63° S 04:11:59 10° E
Meteor 1-27 Rocket 4.0 03:58:28 10° N 04:04:16 68° E 04:08:37 19° SSE
Cosmos 1821 Rocket 4.1 03:59:47 10° NNW 04:05:57 59° W 04:08:03 40° SSW
Cosmos 1943 Rocket 4.2 04:05:09 12° WNW 04:06:31 13° NW 04:08:56 10° NNW
Delta 2 Rocket 3.8 04:08:34 44° W 04:09:55 70° N 04:14:57 10° ENE
ATLAS 5 CENTAUR R/B 3.3 04:09:06 38° WSW 04:11:08 64° NW 04:26:53 10° NNE
ARIANE 5 R/B 2.7 04:08:06 10° N 04:12:57 51° WNW 04:14:00 43° WSW
Cosmos 1869 Rocket 3.6 04:12:49 53° W 04:13:08 55° W 04:17:24 10° N
Lacrosse 4 Rocket 2.7 04:19:22 27° WNW 04:19:57 28° WNW 04:23:46 10° N
Cosmos 2219 4.4 04:15:09 10° N 04:20:30 42° ENE 04:25:47 10° SE
Cosmos 1862 4.3 04:21:46 31° WNW 04:21:46 31° WNW 04:25:05 10° NNW
Cosmos 44 Rocket 4.2 04:20:14 25° SSE 04:22:28 42° ESE 04:27:05 10° NE
ADEOS 3.5 04:17:49 10° NNE 04:23:04 85° WNW 04:25:30 33° SSW
Cosmos 1867 4.4 04:21:35 30° W 04:23:22 38° WNW 04:28:26 10° N
CZ-2D R/B 3.4 04:19:41 10° NNW 04:23:51 24° WNW 04:25:01 22° W
COSMOS 2455 3.5 04:18:50 10° NNW 04:24:46 57° ENE 04:30:38 10° SE
ATLAS 2A CENTAUR R/B 3.6 04:25:09 26° SSW 04:29:02 36° S 04:34:11 10° ESE
Cosmos 1763 Rocket 3.8 04:24:46 10° NNW 04:29:32 43° WSW 04:30:54 35° SW
SL-16 R/B 3.4 04:29:04 27° WSW 04:29:57 28° W 04:35:10 10° NW
CZ-2D R/B 3.6 04:26:31 10° N 04:30:41 56° WNW 04:31:50 40° SW
SEDSat Delta rocket 2.8 04:31:21 44° WSW 04:32:15 56° SSW 04:36:27 10° ESE
Cosmos 1703 Rocket 4.4 04:33:31 10° NNW 04:37:21 30° W 04:37:46 29° W
ADEOS II 2.0 04:33:32 10° N 04:38:49 83° WNW 04:42:10 23° SSW
Cosmos 1814 Rocket 4.5 04:34:50 10° NNW 04:39:43 39° W 04:41:49 27° SSW
ATLAS CENTAUR R/B 1.8 04:38:25 26° S 04:40:06 46° ESE 04:43:48 10° NE
BREEZE-M R/B 3.1 04:36:58 24° SW 04:41:17 85° NW 04:44:40 10° NE
Cosmos 1818 3.6 04:36:46 10° NW 04:42:06 55° WSW 04:47:23 10° S
USA 81 4.4 04:39:25 10° S 04:44:36 65° E 04:49:49 10° N
Cosmos 44 3.3 04:43:09 30° SW 04:45:14 61° WNW 04:50:02 10° NNE
ASTEX 1 3.6 04:43:32 10° SSE 04:48:30 77° E 04:53:30 10° N
Meteor 1-4 Rocket 3.5 04:47:59 27° W 04:48:31 29° WNW 04:51:43 10° NNW
Cosmos 2297 Rocket 4.3 04:47:11 10° N 04:52:03 29° ENE 04:56:54 10° ESE
Meteor 1-14 Rocket 4.3 04:48:35 11° S 04:53:55 80° E 04:59:40 10° N
Cosmos 540 Rocket 3.4 04:49:37 10° NNW 04:54:43 69° WSW 04:59:46 10° S
UNKNOWN OBJECT B 4.1 04:52:56 10° NNW 04:56:16 26° WNW 04:57:39 21° WSW
Cosmos 841 Rocket 4.1 04:52:26 10° NW 04:57:07 35° W 05:00:30 17° SSW
GPS 2-04 Rocket1 2.9 04:55:33 26° SW 04:57:34 55° SSE 05:01:25 10° E
Meteor 1-20 Rocket 4.3 04:52:46 10° S 04:58:18 80° E 05:03:59 10° N
Okean 1-7 4.3 04:55:13 10° NW 04:58:42 24° W 04:59:53 21° WSW
Cosmos 2227 Rocket 3.8 04:54:44 10° N 05:00:00 38° ENE 05:05:14 10° SE
Cosmos 1605 Rocket 4.4 04:56:07 10° NNW 05:01:47 42° W 05:06:55 13° SSW
Cosmos 1733 Rocket 3.2 05:01:16 19° SSW 05:04:07 52° W 05:08:20 10° N
Helios 1A Rocket 4.4 05:06:44 10° NNW 05:09:44 20° WNW 05:11:32 15° WSW
Cosmos 2100 Rocket 4.0 05:04:52 10° N 05:11:04 85° E 05:17:17 10° S
Cosmos 1184 Rocket 4.4 05:10:16 10° NW 05:12:30 17° W 05:12:58 17° WSW
Meteor 1-25 Rocket 4.2 05:11:01 10° SSW 05:16:31 63° W 05:22:01 10° N
Cosmos 1908 Rocket 3.7 05:13:26 10° S 05:17:54 81° E 05:22:22 10° N
Okean 3 3.4 05:14:22 10° N 05:18:34 90° SSW 05:22:46 10° S
Cosmos 1459 Rocket 4.1 05:12:57 10° N 05:19:21 88° W 05:25:43 10° S
Cosmos 1674 Rocket 3.4 05:15:25 10° N 05:19:44 83° W 05:24:02 10° S
Cosmos 389 Rocket 3.8 05:22:41 15° WSW 05:24:50 24° WNW 05:27:49 10° NNW
MOS 1-B 4.4 05:19:23 10° NNE 05:25:12 86° ESE 05:30:58 10° SSW
CZ-4B R/B 3.0 05:21:21 10° NNE 05:25:25 86° ESE 05:29:42 10° SSW
Meteosat 1 Rocket2 4.4 05:25:22 11° SSW 05:28:16 20° SSE 05:31:03 10° ESE
Cosmos 1777 Rocket 4.3 05:27:00 10° S 05:32:11 71° ESE 05:37:22 10° NNE
Meteor 1-28 Rocket 4.4 05:29:37 10° SSE 05:33:13 46° ENE 05:36:49 10° N
GEOS 3 Rocket 4.0 05:28:41 10° NNE 05:33:48 52° NW 05:38:48 10° SW
Cosmos 2123 Rocket 4.1 05:29:30 10° S 05:35:44 88° E 05:41:57 10° N
Okean O Rocket 2.3 05:32:39 10° NNE 05:37:02 57° E 05:41:25 10° S
Cosmos 1656 4.0 05:33:04 10° SW 05:38:35 52° WNW 05:44:08 10° N
USA 229 DEB 3.9 05:31:34 10° NW 05:38:48 68° WSW 05:46:09 10° SSE
USA 229 3.9 05:31:40 10° NW 05:38:54 69° WSW 05:46:16 10° SSE
SeaSat 1 2.8 05:34:15 10° SSE 05:39:09 75° ENE 05:44:04 10° NNW
Cosmos 1602 3.7 05:37:30 10° SSW 05:41:20 65° W 05:45:11 10° N
Sich 1 Rocket 3.6 05:39:26 10° S 05:43:54 74° W 05:48:21 10° N
USA 161 3.9 05:43:48 10° ESE 05:44:51 14° ENE 05:45:58 10° NE
Cosmos 1812 4.3 05:42:59 10° NW 05:45:36 18° W 05:48:13 10° SW
Gbstr 26 Del rocket 3.8 05:43:55 10° SSW 05:47:24 38° SE 05:51:15 10° ENE
Cosmos 1697 Rocket 2.8 05:47:15 10° SSW 05:52:49 63° WNW 05:58:28 10° NNE
